AUA465 LOWW-GCTS

Flight info

Callsign AUA465
Flight time 5h 25m
Altitude 34000
Route OSPEN DCT ABRUK DCT SETAL DCT DETSA/N0458F330 DCT DIBAX DCT TAGIP DCT NESTI DCT OSKOR DCT VOG DCT GEKBA DCT VAMTU DCT KOLON DCT GANGU DCT PADKO DCT DIVKO DCT NILDU DCT NENDA/N0461F350 DCT BCN DCT RODRA DCT PEXOT DCT EBROX DCT LOTOS DCT TORDU DCT DIKUT DCT SOPET DCT VLC DCT SERRA DCT ASTRO DCT POBOS DCT XEBAR DCT YES DCT MAMIS DCT BAZAS DCT VIBAS DCT MGA DCT BRIKE N851 VJF L82 RUNAX UL82 IBALU UN857 TERTO
Aircraft A320/M-SDE3FGHIRWY/LB1

Departure

Time 2026-05-05 08:04
Airport Vienna International Airport (LOWW)

Arrival

Time 2026-05-05 13:29
Airport Tenerife Sur Airport (GCTS)
Time Latitude Longitude Altitude Speed Heading
2026-05-05 07:32 48.11897 16.56767 617 ft 0 kts 206°
2026-05-05 07:37 48.11897 16.56768 609 ft 0 kts 206°
2026-05-05 07:38 48.11898 16.56768 623 ft 0 kts 206°
2026-05-05 07:54 48.11905 16.56773 623 ft 2 kts 206°
2026-05-05 07:54 48.11920 16.56784 612 ft 2 kts 206°
2026-05-05 07:54 48.11936 16.56795 625 ft 2 kts 206°
2026-05-05 07:54 48.11952 16.56804 621 ft 2 kts 191°
2026-05-05 07:55 48.11968 16.56800 625 ft 2 kts 120°
2026-05-05 07:55 48.11968 16.56798 625 ft 0 kts 120°
2026-05-05 07:57 48.11967 16.56801 625 ft 2 kts 120°
2026-05-05 07:57 48.11952 16.56843 619 ft 5 kts 117°
2026-05-05 07:57 48.11932 16.56904 616 ft 7 kts 116°
2026-05-05 07:58 48.11914 16.56960 619 ft 6 kts 116°
2026-05-05 07:58 48.11896 16.57014 611 ft 5 kts 116°
2026-05-05 07:58 48.11876 16.57076 609 ft 7 kts 116°
2026-05-05 07:58 48.11855 16.57147 612 ft 7 kts 106°
2026-05-05 07:59 48.11853 16.57213 609 ft 5 kts 102°
2026-05-05 07:59 48.11834 16.57275 609 ft 8 kts 116°
2026-05-05 07:59 48.11811 16.57346 616 ft 8 kts 115°
2026-05-05 07:59 48.11811 16.57420 609 ft 7 kts 75°
2026-05-05 08:00 48.11825 16.57493 614 ft 7 kts 74°
2026-05-05 08:00 48.11839 16.57553 620 ft 7 kts 59°
2026-05-05 08:00 48.11879 16.57579 609 ft 6 kts 358°
2026-05-05 08:00 48.11924 16.57562 609 ft 6 kts 344°
2026-05-05 08:01 48.11961 16.57553 618 ft 5 kts
2026-05-05 08:01 48.11985 16.57588 619 ft 5 kts 64°
2026-05-05 08:01 48.11986 16.57592 617 ft 0 kts 68°
2026-05-05 08:01 48.11988 16.57600 615 ft 4 kts 71°
2026-05-05 08:02 48.11983 16.57662 609 ft 7 kts 105°
2026-05-05 08:02 48.11970 16.57736 614 ft 7 kts 105°
2026-05-05 08:02 48.11949 16.57817 612 ft 9 kts 125°
2026-05-05 08:02 48.11907 16.57847 617 ft 3 kts 164°
2026-05-05 08:03 48.11813 16.57887 613 ft 42 kts 164°
2026-05-05 08:03 48.11311 16.58099 620 ft 105 kts 164°
2026-05-05 08:03 48.10760 16.58333 619 ft 138 kts 164°
2026-05-05 08:03 48.09705 16.58778 679 ft 172 kts 163°
2026-05-05 08:04 48.08524 16.59274 1197 ft 180 kts 164°
2026-05-05 08:04 48.07286 16.59688 1863 ft 183 kts 177°
2026-05-05 08:04 48.06003 16.59633 2269 ft 193 kts 199°
2026-05-05 08:04 48.04859 16.58465 2484 ft 212 kts 223°
2026-05-05 08:05 48.03762 16.56820 2739 ft 235 kts 224°
2026-05-05 08:05 48.02594 16.55008 3315 ft 245 kts 225°
2026-05-05 08:05 48.01411 16.53156 4074 ft 248 kts 225°
2026-05-05 08:05 48.00206 16.51268 4796 ft 254 kts 225°
2026-05-05 08:06 47.98980 16.49345 5509 ft 257 kts 225°
2026-05-05 08:06 47.97738 16.47401 6248 ft 260 kts 225°
2026-05-05 08:06 47.96524 16.45393 6925 ft 263 kts 233°
2026-05-05 08:06 47.95691 16.42940 7576 ft 269 kts 251°
2026-05-05 08:07 47.95199 16.40221 8232 ft 273 kts 252°
2026-05-05 08:07 47.94710 16.37475 8897 ft 276 kts 252°
2026-05-05 08:07 47.94082 16.34770 9535 ft 277 kts 238°
2026-05-05 08:07 47.92944 16.32455 10124 ft 279 kts 229°
2026-05-05 08:08 47.91680 16.30143 10334 ft 298 kts 229°
2026-05-05 08:08 47.90310 16.27669 10471 ft 319 kts 229°
2026-05-05 08:08 47.88851 16.25042 10595 ft 339 kts 229°
2026-05-05 08:08 47.87311 16.22264 10722 ft 357 kts 229°
2026-05-05 08:09 47.85707 16.19363 11035 ft 367 kts 229°
2026-05-05 08:09 47.84079 16.16409 11556 ft 371 kts 229°
2026-05-05 08:09 47.82442 16.13431 12112 ft 374 kts 229°
2026-05-05 08:09 47.80785 16.10421 12682 ft 377 kts 229°
2026-05-05 08:10 47.79118 16.07402 13247 ft 380 kts 228°
2026-05-05 08:10 47.77429 16.04355 13773 ft 383 kts 228°
2026-05-05 08:10 47.75731 16.01296 14254 ft 385 kts 228°
2026-05-05 08:10 47.74016 15.98210 14716 ft 389 kts 228°
2026-05-05 08:11 47.72289 15.95110 15208 ft 391 kts 228°
2026-05-05 08:11 47.70542 15.91981 15686 ft 395 kts 228°
2026-05-05 08:11 47.68783 15.88834 16178 ft 397 kts 229°
2026-05-05 08:11 47.67015 15.85672 16633 ft 400 kts 229°
2026-05-05 08:12 47.65230 15.82478 17072 ft 403 kts 229°
2026-05-05 08:12 47.63439 15.79270 17494 ft 405 kts 229°
2026-05-05 08:12 47.61635 15.76041 17936 ft 408 kts 229°
2026-05-05 08:12 47.59818 15.72793 18333 ft 411 kts 229°
2026-05-05 08:13 47.57989 15.69530 18680 ft 413 kts 229°
2026-05-05 08:13 47.56147 15.66247 19033 ft 415 kts 229°
2026-05-05 08:13 47.54301 15.62964 19437 ft 416 kts 230°
2026-05-05 08:13 47.52439 15.59661 19705 ft 420 kts 230°
2026-05-05 08:14 47.50567 15.56321 20009 ft 423 kts 232°
2026-05-05 08:14 47.48947 15.52678 20330 ft 426 kts 241°
2026-05-05 08:14 47.47755 15.48667 20699 ft 427 kts 251°
2026-05-05 08:14 47.46913 15.44444 21015 ft 430 kts 253°
2026-05-05 08:15 47.46091 15.40185 21297 ft 432 kts 253°
2026-05-05 08:15 47.45262 15.35914 21609 ft 433 kts 253°
2026-05-05 08:15 47.44429 15.31633 21917 ft 434 kts 253°
2026-05-05 08:15 47.43589 15.27342 22196 ft 436 kts 253°
2026-05-05 08:16 47.42739 15.23024 22492 ft 438 kts 253°
2026-05-05 08:16 47.41888 15.18706 22788 ft 439 kts 253°
2026-05-05 08:16 47.41031 15.14371 23063 ft 440 kts 253°
2026-05-05 08:16 47.40172 15.10022 23344 ft 442 kts 253°
2026-05-05 08:17 47.39308 15.05676 23649 ft 441 kts 253°
2026-05-05 08:17 47.38446 15.01334 23921 ft 442 kts 253°
2026-05-05 08:17 47.37580 14.96978 24109 ft 444 kts 253°
2026-05-05 08:17 47.36711 14.92602 24300 ft 445 kts 253°
2026-05-05 08:18 47.35837 14.88217 24533 ft 445 kts 253°
2026-05-05 08:18 47.34961 14.83838 24739 ft 446 kts 253°
2026-05-05 08:18 47.34079 14.79438 24879 ft 449 kts 253°
2026-05-05 08:18 47.33190 14.75027 25079 ft 449 kts 253°
2026-05-05 08:19 47.32300 14.70618 25283 ft 450 kts 253°
2026-05-05 08:19 47.31407 14.66195 25453 ft 451 kts 253°
2026-05-05 08:19 47.30508 14.61756 25586 ft 453 kts 253°
2026-05-05 08:19 47.29605 14.57314 25779 ft 453 kts 253°
2026-05-05 08:20 47.28700 14.52871 25959 ft 453 kts 253°
2026-05-05 08:20 47.27795 14.48433 26193 ft 452 kts 253°
2026-05-05 08:20 47.26889 14.44010 26425 ft 451 kts 253°
2026-05-05 08:20 47.25981 14.39583 26652 ft 451 kts 253°
2026-05-05 08:21 47.25247 14.36001 26835 ft 450 kts 253°
2026-05-05 08:21 47.24343 14.31597 27071 ft 449 kts 253°
2026-05-05 08:21 47.24050 14.30172 27153 ft 449 kts 253°
2026-05-05 08:21 47.23620 14.28086 27303 ft 447 kts 253°
2026-05-05 08:22 47.22715 14.23714 27523 ft 447 kts 253°
2026-05-05 08:22 47.21808 14.19340 27762 ft 447 kts 253°
2026-05-05 08:22 47.20901 14.14981 28023 ft 445 kts 253°
2026-05-05 08:22 47.19998 14.10646 28355 ft 442 kts 253°
2026-05-05 08:23 47.19112 14.06399 28599 ft 441 kts 253°
2026-05-05 08:23 47.18213 14.02096 28852 ft 440 kts 253°
2026-05-05 08:23 47.17316 13.97804 29114 ft 438 kts 253°
2026-05-05 08:23 47.16422 13.93530 29335 ft 438 kts 253°
2026-05-05 08:24 47.15525 13.89263 29561 ft 437 kts 253°
2026-05-05 08:24 47.14627 13.85001 29829 ft 436 kts 253°
2026-05-05 08:24 47.13733 13.80760 30084 ft 434 kts 253°
2026-05-05 08:24 47.12838 13.76531 30292 ft 433 kts 253°
2026-05-05 08:25 47.11942 13.72307 30479 ft 433 kts 253°
2026-05-05 08:25 47.11047 13.68094 30674 ft 432 kts 252°
2026-05-05 08:25 47.10152 13.63890 30867 ft 431 kts 252°
2026-05-05 08:25 47.09254 13.59687 31049 ft 431 kts 252°
2026-05-05 08:26 47.08357 13.55498 31238 ft 430 kts 252°
2026-05-05 08:26 47.07463 13.51316 31423 ft 429 kts 252°
2026-05-05 08:26 47.06570 13.47138 31571 ft 430 kts 252°
2026-05-05 08:26 47.05675 13.42955 31715 ft 430 kts 252°
2026-05-05 08:27 47.04777 13.38778 31898 ft 429 kts 252°
2026-05-05 08:27 47.03877 13.34613 32083 ft 429 kts 252°
2026-05-05 08:27 47.02971 13.30446 32225 ft 429 kts 252°
2026-05-05 08:27 47.02066 13.26284 32402 ft 429 kts 252°
2026-05-05 08:28 47.01161 13.22119 32573 ft 429 kts 252°
2026-05-05 08:28 47.00259 13.17960 32720 ft 429 kts 251°
2026-05-05 08:28 46.99353 13.13792 32882 ft 429 kts 251°
2026-05-05 08:28 46.98444 13.09633 33063 ft 429 kts 251°
2026-05-05 08:29 46.97534 13.05480 33240 ft 428 kts 251°
2026-05-05 08:29 46.96621 13.01331 33421 ft 428 kts 251°
2026-05-05 08:29 46.95708 12.97186 33582 ft 428 kts 251°
2026-05-05 08:30 46.93880 12.88913 33935 ft 427 kts 251°
2026-05-05 08:30 46.92050 12.80638 33977 ft 428 kts 251°
2026-05-05 08:31 46.90207 12.72355 33997 ft 428 kts 251°
2026-05-05 08:31 46.88360 12.64075 34006 ft 429 kts 251°
2026-05-05 08:32 46.86505 12.55783 34025 ft 430 kts 251°
2026-05-05 08:32 46.84639 12.47483 34049 ft 430 kts 251°
2026-05-05 08:33 46.82762 12.39194 34067 ft 430 kts 251°
2026-05-05 08:33 46.80835 12.30933 34081 ft 429 kts 246°
2026-05-05 08:34 46.77750 12.23542 34095 ft 428 kts 231°
2026-05-05 08:34 46.73997 12.16808 34006 ft 428 kts 231°
2026-05-05 08:35 46.70256 12.10070 33998 ft 427 kts 231°
2026-05-05 08:35 46.66522 12.03342 34000 ft 427 kts 231°
2026-05-05 08:36 46.62783 11.96614 34003 ft 427 kts 231°
2026-05-05 08:36 46.59042 11.89902 34005 ft 427 kts 231°
2026-05-05 08:37 46.55290 11.83201 33998 ft 427 kts 230°
2026-05-05 08:37 46.51531 11.76527 33995 ft 427 kts 230°
2026-05-05 08:38 46.47764 11.69839 33994 ft 428 kts 230°
2026-05-05 08:38 46.43998 11.63154 33998 ft 428 kts 230°
2026-05-05 08:39 46.40229 11.56483 34001 ft 428 kts 230°
2026-05-05 08:39 46.36451 11.49820 34000 ft 428 kts 230°
2026-05-05 08:40 46.32667 11.43158 34005 ft 428 kts 230°
2026-05-05 08:40 46.28881 11.36502 34008 ft 428 kts 230°
2026-05-05 08:41 46.25084 11.29859 34017 ft 428 kts 230°
2026-05-05 08:41 46.21292 11.23228 34069 ft 428 kts 230°
2026-05-05 08:42 46.17488 11.16598 34084 ft 428 kts 229°
2026-05-05 08:42 46.13680 11.09984 34076 ft 428 kts 229°
2026-05-05 08:43 46.09955 11.03288 34065 ft 429 kts 232°
2026-05-05 08:43 46.06536 10.96255 34057 ft 429 kts 234°
2026-05-05 08:44 46.03767 10.90333 34044 ft 429 kts 235°
2026-05-05 08:44 46.00388 10.83262 34042 ft 428 kts 234°
2026-05-05 08:45 45.96952 10.76270 34033 ft 428 kts 233°
2026-05-05 08:45 45.93503 10.69303 34051 ft 427 kts 233°
2026-05-05 08:46 45.90076 10.62343 34036 ft 426 kts 233°
2026-05-05 08:46 45.86668 10.55399 34029 ft 425 kts 233°
2026-05-05 08:47 45.83259 10.48484 34024 ft 424 kts 233°
2026-05-05 08:47 45.79850 10.41603 34020 ft 423 kts 233°
2026-05-05 08:48 45.76438 10.34745 34010 ft 422 kts 233°
2026-05-05 08:48 45.73029 10.27906 34006 ft 422 kts 233°
2026-05-05 08:49 45.69622 10.21078 34011 ft 421 kts 232°
2026-05-05 08:49 45.66214 10.14263 34012 ft 421 kts 232°
2026-05-05 08:50 45.62700 10.07601 34008 ft 419 kts 229°
2026-05-05 08:50 45.58940 10.01263 34020 ft 418 kts 227°
2026-05-05 08:51 45.55139 9.94983 34019 ft 418 kts 227°
2026-05-05 08:51 45.51378 9.88665 34016 ft 418 kts 228°
2026-05-05 08:52 45.47642 9.82319 34018 ft 418 kts 228°
2026-05-05 08:52 45.43904 9.75986 34078 ft 418 kts 228°
2026-05-05 08:53 45.40165 9.69660 34096 ft 418 kts 228°
2026-05-05 08:53 45.36405 9.63336 34084 ft 418 kts 228°
2026-05-05 08:54 45.32648 9.57048 34061 ft 418 kts 228°
2026-05-05 08:54 45.28886 9.50746 34039 ft 418 kts 228°
2026-05-05 08:55 45.25116 9.44438 34016 ft 419 kts 228°
2026-05-05 08:55 45.21340 9.38150 33993 ft 419 kts 228°
2026-05-05 08:56 45.17560 9.31857 33992 ft 419 kts 229°
2026-05-05 08:56 45.13777 9.25582 33999 ft 419 kts 229°
2026-05-05 08:57 45.09994 9.19321 34015 ft 418 kts 229°
2026-05-05 08:57 45.06210 9.13073 34013 ft 418 kts 228°
2026-05-05 08:58 45.02426 9.06843 34006 ft 417 kts 228°
2026-05-05 08:58 44.98643 9.00630 34003 ft 417 kts 229°
2026-05-05 08:59 44.94883 8.94402 34006 ft 416 kts 230°
2026-05-05 08:59 44.91245 8.88040 34008 ft 416 kts 231°
2026-05-05 09:00 44.87642 8.81640 34004 ft 416 kts 230°
2026-05-05 09:00 44.84015 8.75284 34006 ft 416 kts 231°
2026-05-05 09:01 44.80375 8.68968 34008 ft 415 kts 231°
2026-05-05 09:01 44.76738 8.62676 34008 ft 414 kts 230°
2026-05-05 09:02 44.73105 8.56397 34001 ft 414 kts 231°
2026-05-05 09:02 44.69474 8.50123 33999 ft 413 kts 230°
2026-05-05 09:03 44.65842 8.43870 33992 ft 413 kts 231°
2026-05-05 09:03 44.62213 8.37634 33996 ft 412 kts 231°
2026-05-05 09:04 44.58586 8.31415 34011 ft 411 kts 231°
2026-05-05 09:04 44.54960 8.25222 34007 ft 410 kts 231°
2026-05-05 09:05 44.51341 8.19048 34006 ft 410 kts 231°
2026-05-05 09:05 44.47725 8.12884 34005 ft 409 kts 230°
2026-05-05 09:06 44.44102 8.06737 34003 ft 409 kts 230°
2026-05-05 09:06 44.40486 8.00601 34003 ft 409 kts 230°
2026-05-05 09:07 44.36866 7.94473 34019 ft 408 kts 230°
2026-05-05 09:07 44.33244 7.88367 34003 ft 408 kts 230°
2026-05-05 09:08 44.29631 7.82272 33998 ft 407 kts 230°
2026-05-05 09:08 44.25848 7.76431 34004 ft 407 kts 222°
2026-05-05 09:09 44.21608 7.71216 33997 ft 406 kts 223°
2026-05-05 09:09 44.17374 7.65996 33988 ft 406 kts 223°
2026-05-05 09:10 44.13318 7.60550 33961 ft 404 kts 230°
2026-05-05 09:10 44.09635 7.54637 33988 ft 404 kts 230°
2026-05-05 09:11 44.05955 7.48751 33991 ft 403 kts 230°
2026-05-05 09:11 44.02280 7.42886 33989 ft 402 kts 230°
2026-05-05 09:12 43.98603 7.37037 33969 ft 402 kts 230°
2026-05-05 09:12 43.94932 7.31209 33985 ft 400 kts 230°
2026-05-05 09:13 43.91271 7.25404 33991 ft 399 kts 230°
2026-05-05 09:13 43.87620 7.19627 33991 ft 398 kts 230°
2026-05-05 09:14 43.83965 7.13859 33984 ft 398 kts 230°
2026-05-05 09:14 43.80319 7.08105 33978 ft 397 kts 230°
2026-05-05 09:15 43.76697 7.02409 33983 ft 397 kts 230°
2026-05-05 09:15 43.73075 6.96595 33977 ft 395 kts 235°
2026-05-05 09:16 43.70587 6.89852 33980 ft 395 kts 247°
2026-05-05 09:16 43.68527 6.82814 33999 ft 395 kts 246°
2026-05-05 09:17 43.66451 6.75791 33993 ft 394 kts 246°
2026-05-05 09:17 43.64374 6.68796 33988 ft 394 kts 246°
2026-05-05 09:18 43.62294 6.61804 33969 ft 393 kts 246°
2026-05-05 09:18 43.60219 6.54816 33969 ft 393 kts 246°
2026-05-05 09:19 43.58141 6.47834 33969 ft 394 kts 246°
2026-05-05 09:19 43.56055 6.40859 33995 ft 393 kts 246°
2026-05-05 09:20 43.53979 6.33942 33988 ft 393 kts 245°
2026-05-05 09:20 43.51890 6.26992 33982 ft 393 kts 245°
2026-05-05 09:21 43.49798 6.20043 33982 ft 392 kts 245°
2026-05-05 09:21 43.47703 6.13103 33975 ft 392 kts 245°
2026-05-05 09:22 43.45602 6.06169 33960 ft 393 kts 245°
2026-05-05 09:22 43.43490 5.99240 33953 ft 393 kts 245°
2026-05-05 09:23 43.41369 5.92309 33942 ft 393 kts 245°
2026-05-05 09:23 43.39255 5.85376 33940 ft 393 kts 245°
2026-05-05 09:24 43.37134 5.78444 33940 ft 393 kts 245°
2026-05-05 09:24 43.35008 5.71524 33940 ft 393 kts 245°
2026-05-05 09:25 43.32872 5.64605 33959 ft 393 kts 245°
2026-05-05 09:25 43.30736 5.57696 33956 ft 393 kts 245°
2026-05-05 09:26 43.28601 5.50778 33932 ft 394 kts 245°
2026-05-05 09:26 43.26460 5.43857 33930 ft 394 kts 245°
2026-05-05 09:27 43.24652 5.38061 33931 ft 395 kts 244°
2026-05-05 09:27 43.22484 5.31133 33973 ft 395 kts 244°
2026-05-05 09:28 43.20326 5.24227 33973 ft 393 kts 244°
2026-05-05 09:28 43.18167 5.17347 33969 ft 393 kts 244°
2026-05-05 09:29 43.16007 5.10485 33967 ft 392 kts 244°
2026-05-05 09:29 43.13842 5.03638 33964 ft 392 kts 244°
2026-05-05 09:30 43.11681 4.96801 33936 ft 392 kts 244°
2026-05-05 09:30 43.09515 4.89963 33962 ft 391 kts 244°
2026-05-05 09:31 43.07358 4.83184 33959 ft 391 kts 244°
2026-05-05 09:31 43.04646 4.76806 33958 ft 389 kts 229°
2026-05-05 09:32 43.00700 4.71751 33951 ft 389 kts 223°
2026-05-05 09:32 42.96642 4.66855 33948 ft 389 kts 223°
2026-05-05 09:33 42.92584 4.61952 33935 ft 390 kts 223°
2026-05-05 09:33 42.88523 4.57046 33961 ft 390 kts 223°
2026-05-05 09:34 42.84449 4.52144 33956 ft 390 kts 223°
2026-05-05 09:34 42.80378 4.47258 33955 ft 390 kts 223°
2026-05-05 09:35 42.76305 4.42371 33956 ft 390 kts 223°
2026-05-05 09:35 42.70190 4.35072 33951 ft 390 kts 223°
2026-05-05 09:36 42.66117 4.30205 33954 ft 390 kts 223°
2026-05-05 09:36 42.62037 4.25351 33959 ft 390 kts 223°
2026-05-05 09:37 42.57955 4.20507 33957 ft 390 kts 223°
2026-05-05 09:37 42.53875 4.15661 33967 ft 389 kts 223°
2026-05-05 09:38 42.49798 4.10838 33951 ft 389 kts 223°
2026-05-05 09:38 42.45714 4.06012 33952 ft 390 kts 223°
2026-05-05 09:39 42.41626 4.01190 33952 ft 390 kts 223°
2026-05-05 09:39 42.37533 3.96375 33955 ft 390 kts 223°
2026-05-05 09:40 42.33437 3.91563 33924 ft 390 kts 223°
2026-05-05 09:40 42.29334 3.86746 33929 ft 391 kts 223°
2026-05-05 09:41 42.25414 3.81670 33934 ft 390 kts 232°
2026-05-05 09:41 42.22261 3.75709 33975 ft 390 kts 234°
2026-05-05 09:42 42.19129 3.69747 33973 ft 389 kts 234°
2026-05-05 09:42 42.15992 3.63807 33974 ft 389 kts 234°
2026-05-05 09:43 42.12855 3.57877 33946 ft 389 kts 234°
2026-05-05 09:43 42.09710 3.51947 33944 ft 389 kts 234°
2026-05-05 09:44 42.06557 3.46016 33942 ft 390 kts 234°
2026-05-05 09:44 42.03398 3.40075 33941 ft 390 kts 234°
2026-05-05 09:45 42.00232 3.34143 33941 ft 390 kts 234°
2026-05-05 09:45 41.97068 3.28214 33945 ft 391 kts 234°
2026-05-05 09:46 41.93898 3.22286 33909 ft 391 kts 234°
2026-05-05 09:46 41.90716 3.16350 33919 ft 392 kts 234°
2026-05-05 09:47 41.87524 3.10414 33925 ft 392 kts 234°
2026-05-05 09:47 41.84326 3.04474 33962 ft 393 kts 234°
2026-05-05 09:48 41.81127 2.98549 33967 ft 392 kts 234°
2026-05-05 09:48 41.77936 2.92644 33968 ft 391 kts 234°
2026-05-05 09:49 41.74750 2.86758 33961 ft 390 kts 234°
2026-05-05 09:49 41.71560 2.80876 33957 ft 390 kts 234°
2026-05-05 09:50 41.68373 2.75004 33953 ft 390 kts 234°
2026-05-05 09:50 41.65086 2.69223 33952 ft 391 kts 233°
2026-05-05 09:51 41.61723 2.63527 33980 ft 390 kts 233°
2026-05-05 09:51 41.58375 2.57829 33973 ft 389 kts 233°
2026-05-05 09:52 41.55048 2.52140 33974 ft 388 kts 233°
2026-05-05 09:52 41.51727 2.46457 33946 ft 388 kts 233°
2026-05-05 09:53 41.48405 2.40788 33950 ft 388 kts 233°
2026-05-05 09:53 41.45076 2.35132 33958 ft 388 kts 233°
2026-05-05 09:54 41.41752 2.29485 33963 ft 387 kts 233°
2026-05-05 09:54 41.38433 2.23836 33994 ft 387 kts 233°
2026-05-05 09:55 41.35105 2.18204 33993 ft 386 kts 233°
2026-05-05 09:55 41.31778 2.12593 33948 ft 386 kts 233°
2026-05-05 09:56 41.28361 2.07089 33960 ft 386 kts 231°
2026-05-05 09:56 41.24747 2.01798 33965 ft 386 kts 230°
2026-05-05 09:57 41.21112 1.96544 33967 ft 386 kts 230°
2026-05-05 09:57 41.17508 1.91262 33965 ft 386 kts 230°
2026-05-05 09:58 41.13921 1.85965 33972 ft 386 kts 230°
2026-05-05 09:58 41.10340 1.80676 33963 ft 385 kts 230°
2026-05-05 09:59 41.06762 1.75415 33972 ft 384 kts 230°
2026-05-05 09:59 41.03187 1.70173 33972 ft 383 kts 230°
2026-05-05 10:00 40.99623 1.64947 33975 ft 382 kts 230°
2026-05-05 10:00 40.96061 1.59733 33973 ft 382 kts 230°
2026-05-05 10:01 40.92498 1.54534 33970 ft 381 kts 230°
2026-05-05 10:01 40.88929 1.49344 33945 ft 381 kts 230°
2026-05-05 10:02 40.85385 1.44201 33964 ft 380 kts 230°
2026-05-05 10:02 40.81804 1.39008 33972 ft 379 kts 230°
2026-05-05 10:03 40.78280 1.33896 33984 ft 379 kts 230°
2026-05-05 10:03 40.74733 1.28753 33982 ft 379 kts 230°
2026-05-05 10:04 40.71185 1.23631 33968 ft 378 kts 230°
2026-05-05 10:04 40.67630 1.18512 33970 ft 378 kts 230°
2026-05-05 10:05 40.64079 1.13399 33984 ft 378 kts 230°
2026-05-05 10:05 40.60520 1.08277 33963 ft 380 kts 230°
2026-05-05 10:06 40.56954 1.03150 33958 ft 380 kts 230°
2026-05-05 10:06 40.53375 0.98019 33953 ft 381 kts 230°
2026-05-05 10:07 40.49789 0.92894 33954 ft 381 kts 230°
2026-05-05 10:07 40.46196 0.87771 33930 ft 381 kts 230°
2026-05-05 10:08 40.42611 0.82667 33960 ft 380 kts 230°
2026-05-05 10:08 40.39030 0.77584 33968 ft 379 kts 230°
2026-05-05 10:09 40.36061 0.73364 33974 ft 379 kts 230°
2026-05-05 10:09 40.32453 0.68244 33961 ft 380 kts 230°
2026-05-05 10:10 40.28883 0.63199 33956 ft 380 kts 230°
2026-05-05 10:10 40.25283 0.58116 33948 ft 381 kts 230°
2026-05-05 10:11 40.21690 0.53045 33951 ft 379 kts 230°
2026-05-05 10:11 40.18111 0.48001 33963 ft 378 kts 230°
2026-05-05 10:12 40.14528 0.42972 33963 ft 377 kts 230°
2026-05-05 10:12 40.10953 0.37958 33999 ft 377 kts 230°
2026-05-05 10:13 40.07370 0.32946 33981 ft 377 kts 230°
2026-05-05 10:13 40.03786 0.27938 33966 ft 378 kts 230°
2026-05-05 10:14 40.00203 0.22937 33924 ft 377 kts 230°
2026-05-05 10:14 39.96623 0.17941 33933 ft 377 kts 230°
2026-05-05 10:15 39.93049 0.12951 33937 ft 377 kts 230°
2026-05-05 10:15 39.89468 0.07971 33947 ft 376 kts 230°
2026-05-05 10:16 39.85883 0.03002 33949 ft 376 kts 230°
2026-05-05 10:16 39.82297 -0.01960 33974 ft 376 kts 230°
2026-05-05 10:17 39.78717 -0.06924 33923 ft 376 kts 231°
2026-05-05 10:17 39.75130 -0.11885 33927 ft 377 kts 230°
2026-05-05 10:18 39.71539 -0.16838 33932 ft 377 kts 230°
2026-05-05 10:18 39.67941 -0.21787 33937 ft 377 kts 230°
2026-05-05 10:19 39.64339 -0.26724 33937 ft 377 kts 230°
2026-05-05 10:19 39.60735 -0.31662 33938 ft 377 kts 230°
2026-05-05 10:20 39.57132 -0.36598 33901 ft 377 kts 230°
2026-05-05 10:20 39.53516 -0.41543 33917 ft 379 kts 230°
2026-05-05 10:21 39.49882 -0.46494 33924 ft 379 kts 230°
2026-05-05 10:21 39.46552 -0.51742 33925 ft 377 kts 236°
2026-05-05 10:22 39.43393 -0.57151 33929 ft 377 kts 236°
2026-05-05 10:22 39.40224 -0.62554 33934 ft 377 kts 235°
2026-05-05 10:23 39.37048 -0.67957 33946 ft 377 kts 235°
2026-05-05 10:23 39.33867 -0.73354 33926 ft 378 kts 235°
2026-05-05 10:24 39.30696 -0.78737 33974 ft 379 kts 236°
2026-05-05 10:24 39.27495 -0.84157 33979 ft 379 kts 236°
2026-05-05 10:25 39.24298 -0.89561 33976 ft 379 kts 236°
2026-05-05 10:25 39.21107 -0.94967 33984 ft 379 kts 236°
2026-05-05 10:26 39.17911 -1.00360 33978 ft 379 kts 236°
2026-05-05 10:26 39.14707 -1.05749 33974 ft 379 kts 236°
2026-05-05 10:27 39.11500 -1.11123 33942 ft 378 kts 235°
2026-05-05 10:27 39.08286 -1.16499 33964 ft 379 kts 235°
2026-05-05 10:28 39.05071 -1.21890 33966 ft 380 kts 235°
2026-05-05 10:28 39.01849 -1.27279 33977 ft 380 kts 235°
2026-05-05 10:29 38.98618 -1.32671 33979 ft 380 kts 235°
2026-05-05 10:29 38.95382 -1.38054 33988 ft 381 kts 235°
2026-05-05 10:30 38.92142 -1.43430 33992 ft 381 kts 235°
2026-05-05 10:30 38.88901 -1.48810 33994 ft 381 kts 235°
2026-05-05 10:31 38.85661 -1.54199 33997 ft 383 kts 235°
2026-05-05 10:31 38.82395 -1.59611 33993 ft 384 kts 235°
2026-05-05 10:32 38.79114 -1.65015 33990 ft 384 kts 235°
2026-05-05 10:32 38.75830 -1.70420 33985 ft 385 kts 235°
2026-05-05 10:33 38.72545 -1.75830 33990 ft 385 kts 235°
2026-05-05 10:33 38.69257 -1.81242 33987 ft 385 kts 235°
2026-05-05 10:34 38.65967 -1.86650 33993 ft 385 kts 234°
2026-05-05 10:34 38.62670 -1.92047 33987 ft 385 kts 235°
2026-05-05 10:35 38.59368 -1.97446 33991 ft 385 kts 235°
2026-05-05 10:35 38.56063 -2.02844 33990 ft 386 kts 235°
2026-05-05 10:36 38.52753 -2.08229 33993 ft 386 kts 235°
2026-05-05 10:36 38.49439 -2.13617 33996 ft 386 kts 235°
2026-05-05 10:37 38.46125 -2.18995 34003 ft 386 kts 235°
2026-05-05 10:37 38.42810 -2.24377 34002 ft 386 kts 235°
2026-05-05 10:38 38.39494 -2.29751 34026 ft 386 kts 235°
2026-05-05 10:38 38.36165 -2.35111 34018 ft 386 kts 233°
2026-05-05 10:39 38.32480 -2.40127 34015 ft 388 kts 231°
2026-05-05 10:39 38.28770 -2.45107 34020 ft 388 kts 231°
2026-05-05 10:40 38.25049 -2.50076 34019 ft 387 kts 231°
2026-05-05 10:40 38.21341 -2.55045 34002 ft 386 kts 231°
2026-05-05 10:41 38.17634 -2.60020 34018 ft 388 kts 231°
2026-05-05 10:41 38.13912 -2.64987 34008 ft 390 kts 230°
2026-05-05 10:42 38.08278 -2.72484 34031 ft 392 kts 230°
2026-05-05 10:43 38.04520 -2.77489 34028 ft 392 kts 230°
2026-05-05 10:43 38.00760 -2.82481 34028 ft 391 kts 230°
2026-05-05 10:44 37.96993 -2.87466 34028 ft 391 kts 230°
2026-05-05 10:44 37.93255 -2.92415 34032 ft 391 kts 230°
2026-05-05 10:45 37.89465 -2.97424 33999 ft 392 kts 230°
2026-05-05 10:45 37.85715 -3.02368 34002 ft 393 kts 230°
2026-05-05 10:46 37.81932 -3.07357 34024 ft 393 kts 230°
2026-05-05 10:46 37.78145 -3.12335 34023 ft 393 kts 230°
2026-05-05 10:47 37.74331 -3.17336 34018 ft 393 kts 230°
2026-05-05 10:47 37.70568 -3.22269 34024 ft 392 kts 230°
2026-05-05 10:48 37.66783 -3.27232 33982 ft 392 kts 230°
2026-05-05 10:48 37.62989 -3.32189 33988 ft 393 kts 230°
2026-05-05 10:49 37.59181 -3.37151 34005 ft 394 kts 230°
2026-05-05 10:49 37.55373 -3.42116 34011 ft 394 kts 230°
2026-05-05 10:50 37.51562 -3.47084 34009 ft 394 kts 230°
2026-05-05 10:50 37.47750 -3.52039 34028 ft 394 kts 230°
2026-05-05 10:51 37.43935 -3.56988 34031 ft 394 kts 230°
2026-05-05 10:51 37.40112 -3.61933 33999 ft 394 kts 229°
2026-05-05 10:52 37.36285 -3.66878 34004 ft 395 kts 229°
2026-05-05 10:52 37.32448 -3.71829 34007 ft 396 kts 229°
2026-05-05 10:53 37.29224 -3.75980 34012 ft 396 kts 229°
2026-05-05 10:53 37.25378 -3.80930 34041 ft 396 kts 229°
2026-05-05 10:54 37.21531 -3.85886 34047 ft 396 kts 229°
2026-05-05 10:54 37.17676 -3.90828 34046 ft 396 kts 229°
2026-05-05 10:55 37.13811 -3.95765 34015 ft 397 kts 229°
2026-05-05 10:55 37.09942 -4.00715 34017 ft 398 kts 229°
2026-05-05 10:56 37.06063 -4.05676 34014 ft 399 kts 229°
2026-05-05 10:56 37.02177 -4.10629 34008 ft 399 kts 229°
2026-05-05 10:57 36.98287 -4.15582 34008 ft 399 kts 229°
2026-05-05 10:57 36.94397 -4.20521 34003 ft 399 kts 229°
2026-05-05 10:58 36.90500 -4.25468 33972 ft 400 kts 229°
2026-05-05 10:58 36.86593 -4.30430 33977 ft 401 kts 229°
2026-05-05 10:59 36.82739 -4.35480 33973 ft 400 kts 234°
2026-05-05 10:59 36.80104 -4.41461 33978 ft 397 kts 251°
2026-05-05 11:00 36.78235 -4.47940 33983 ft 397 kts 250°
2026-05-05 11:00 36.76353 -4.54421 33984 ft 398 kts 250°
2026-05-05 11:01 36.74454 -4.60904 33993 ft 398 kts 250°
2026-05-05 11:01 36.72552 -4.67384 33996 ft 398 kts 250°
2026-05-05 11:02 36.70649 -4.73874 34016 ft 398 kts 250°
2026-05-05 11:02 36.68740 -4.80358 34017 ft 398 kts 250°
2026-05-05 11:03 36.66808 -4.86877 34017 ft 399 kts 250°
2026-05-05 11:03 36.64898 -4.93314 34021 ft 399 kts 250°
2026-05-05 11:04 36.62980 -4.99802 33998 ft 400 kts 250°
2026-05-05 11:04 36.61041 -5.06350 34002 ft 401 kts 250°
2026-05-05 11:05 36.59118 -5.12821 34008 ft 402 kts 250°
2026-05-05 11:05 36.57172 -5.19336 34021 ft 402 kts 250°
2026-05-05 11:06 36.55214 -5.25860 34024 ft 402 kts 250°
2026-05-05 11:06 36.53256 -5.32375 34028 ft 402 kts 250°
2026-05-05 11:07 36.51301 -5.38893 34040 ft 402 kts 250°
2026-05-05 11:07 36.48840 -5.45129 34040 ft 403 kts 241°
2026-05-05 11:08 36.45999 -5.51137 34049 ft 403 kts 241°
2026-05-05 11:08 36.43158 -5.57135 34047 ft 403 kts 241°
2026-05-05 11:09 36.40316 -5.63132 34047 ft 403 kts 241°
2026-05-05 11:09 36.37473 -5.69129 34053 ft 403 kts 241°
2026-05-05 11:10 36.34630 -5.75124 34044 ft 403 kts 241°
2026-05-05 11:10 36.31776 -5.81115 34050 ft 403 kts 241°
2026-05-05 11:11 36.28921 -5.87100 34056 ft 404 kts 241°
2026-05-05 11:11 36.26060 -5.93093 34063 ft 404 kts 241°
2026-05-05 11:12 36.23063 -5.98976 34069 ft 405 kts 235°
2026-05-05 11:12 36.19651 -6.04539 34074 ft 405 kts 235°
2026-05-05 11:13 36.16236 -6.10088 34069 ft 405 kts 235°
2026-05-05 11:13 36.12816 -6.15640 34074 ft 405 kts 235°
2026-05-05 11:14 36.09400 -6.21187 34080 ft 405 kts 235°
2026-05-05 11:14 36.05977 -6.26732 34059 ft 406 kts 234°
2026-05-05 11:15 36.02542 -6.32286 34056 ft 407 kts 234°
2026-05-05 11:15 35.99098 -6.37849 34061 ft 408 kts 234°
2026-05-05 11:16 35.95644 -6.43409 34064 ft 408 kts 234°
2026-05-05 11:16 35.92190 -6.48973 34075 ft 408 kts 234°
2026-05-05 11:17 35.88739 -6.54540 34081 ft 408 kts 235°
2026-05-05 11:17 35.85282 -6.60099 34076 ft 408 kts 234°
2026-05-05 11:18 35.81820 -6.65643 34079 ft 408 kts 234°
2026-05-05 11:18 35.78353 -6.71181 34085 ft 408 kts 234°
2026-05-05 11:19 35.74888 -6.76724 34088 ft 408 kts 234°
2026-05-05 11:19 35.71421 -6.82254 34087 ft 408 kts 234°
2026-05-05 11:20 35.67948 -6.87783 34092 ft 408 kts 234°
2026-05-05 11:20 35.64477 -6.93306 34093 ft 408 kts 234°
2026-05-05 11:21 35.60996 -6.98837 34096 ft 409 kts 234°
2026-05-05 11:21 35.57514 -7.04350 34101 ft 409 kts 234°
2026-05-05 11:22 35.54025 -7.09864 34072 ft 409 kts 234°
2026-05-05 11:22 35.50525 -7.15384 34076 ft 410 kts 234°
2026-05-05 11:23 35.47017 -7.20918 34082 ft 411 kts 234°
2026-05-05 11:23 35.43497 -7.26459 34093 ft 412 kts 234°
2026-05-05 11:24 35.39995 -7.31960 34099 ft 412 kts 234°
2026-05-05 11:24 35.36470 -7.37490 34100 ft 412 kts 234°
2026-05-05 11:25 35.32943 -7.43021 34102 ft 412 kts 234°
2026-05-05 11:25 35.29414 -7.48547 34102 ft 412 kts 234°
2026-05-05 11:26 35.25884 -7.54072 34082 ft 412 kts 234°
2026-05-05 11:26 35.22335 -7.59600 34088 ft 414 kts 234°
2026-05-05 11:27 35.18777 -7.65137 34092 ft 414 kts 234°
2026-05-05 11:27 35.15211 -7.70675 34104 ft 415 kts 234°
2026-05-05 11:28 35.11642 -7.76217 34098 ft 415 kts 234°
2026-05-05 11:28 35.08069 -7.81766 34097 ft 415 kts 234°
2026-05-05 11:29 35.04493 -7.87299 34099 ft 415 kts 233°
2026-05-05 11:29 35.00907 -7.92835 34101 ft 415 kts 233°
2026-05-05 11:30 34.97325 -7.98359 34093 ft 416 kts 233°
2026-05-05 11:30 34.93722 -8.03887 34087 ft 417 kts 233°
2026-05-05 11:31 34.90125 -8.09425 34097 ft 417 kts 233°
2026-05-05 11:31 34.86516 -8.14963 34106 ft 417 kts 233°
2026-05-05 11:32 34.82906 -8.20500 34103 ft 418 kts 233°
2026-05-05 11:32 34.79286 -8.26033 34110 ft 418 kts 233°
2026-05-05 11:33 34.75668 -8.31558 34105 ft 418 kts 233°
2026-05-05 11:33 34.72045 -8.37087 34111 ft 418 kts 233°
2026-05-05 11:34 34.68421 -8.42611 34099 ft 418 kts 233°
2026-05-05 11:34 34.64786 -8.48139 34100 ft 419 kts 233°
2026-05-05 11:35 34.61142 -8.53666 34103 ft 419 kts 233°
2026-05-05 11:35 34.58111 -8.58262 34106 ft 419 kts 233°
2026-05-05 11:36 34.54465 -8.63788 34113 ft 420 kts 233°
2026-05-05 11:36 34.50815 -8.69308 34116 ft 420 kts 233°
2026-05-05 11:37 34.47150 -8.74824 34109 ft 420 kts 233°
2026-05-05 11:37 34.43227 -8.80085 34108 ft 424 kts 222°
2026-05-05 11:38 34.38613 -8.84541 34100 ft 425 kts 221°
2026-05-05 11:38 34.33970 -8.88977 34104 ft 426 kts 221°
2026-05-05 11:39 34.29332 -8.93433 34104 ft 426 kts 221°
2026-05-05 11:39 34.24686 -8.97894 34109 ft 426 kts 221°
2026-05-05 11:40 34.20037 -9.02346 34110 ft 426 kts 221°
2026-05-05 11:40 34.15387 -9.06791 34111 ft 426 kts 221°
2026-05-05 11:41 34.10731 -9.11230 34109 ft 426 kts 221°
2026-05-05 11:41 34.06078 -9.15658 34116 ft 426 kts 221°
2026-05-05 11:42 34.01432 -9.20085 34113 ft 426 kts 221°
2026-05-05 11:42 33.96780 -9.24505 34116 ft 426 kts 221°
2026-05-05 11:43 33.92126 -9.28913 34116 ft 426 kts 221°
2026-05-05 11:43 33.87473 -9.33323 34118 ft 426 kts 221°
2026-05-05 11:44 33.82818 -9.37722 34120 ft 425 kts 221°
2026-05-05 11:44 33.78181 -9.42099 34134 ft 424 kts 221°
2026-05-05 11:45 33.73547 -9.46467 34133 ft 423 kts 221°
2026-05-05 11:45 33.68920 -9.50834 34128 ft 423 kts 221°
2026-05-05 11:46 33.64293 -9.55185 34124 ft 423 kts 221°
2026-05-05 11:46 33.59662 -9.59537 34109 ft 423 kts 221°
2026-05-05 11:47 33.55035 -9.63886 34119 ft 421 kts 221°
2026-05-05 11:47 33.50425 -9.68203 34126 ft 420 kts 221°
2026-05-05 11:48 33.43527 -9.74652 34132 ft 419 kts 221°
2026-05-05 11:48 33.38939 -9.78938 34124 ft 418 kts 221°
2026-05-05 11:49 33.34348 -9.83211 34120 ft 418 kts 221°
2026-05-05 11:49 33.29756 -9.87487 34124 ft 418 kts 221°
2026-05-05 11:50 33.25185 -9.91739 34131 ft 414 kts 222°
2026-05-05 11:50 33.20655 -9.95940 34143 ft 411 kts 222°
2026-05-05 11:51 33.16145 -10.00120 34140 ft 409 kts 222°
2026-05-05 11:51 33.11656 -10.04271 34134 ft 408 kts 222°
2026-05-05 11:52 33.07180 -10.08409 34127 ft 407 kts 222°
2026-05-05 11:52 33.02711 -10.12540 34130 ft 406 kts 222°
2026-05-05 11:53 32.98277 -10.16632 34127 ft 406 kts 222°
2026-05-05 11:53 32.93811 -10.20743 34128 ft 406 kts 222°
2026-05-05 11:54 32.89350 -10.24840 34127 ft 405 kts 222°
2026-05-05 11:54 32.84893 -10.28930 34118 ft 404 kts 222°
2026-05-05 11:55 32.80431 -10.33009 34116 ft 404 kts 222°
2026-05-05 11:55 32.75980 -10.37086 34120 ft 404 kts 222°
2026-05-05 11:56 32.71527 -10.41159 34106 ft 402 kts 223°
2026-05-05 11:56 32.67185 -10.45101 34106 ft 387 kts 223°
2026-05-05 11:57 32.62931 -10.48986 34108 ft 385 kts 223°
2026-05-05 11:57 32.58685 -10.52860 34109 ft 385 kts 223°
2026-05-05 11:58 32.54437 -10.56726 34109 ft 385 kts 223°
2026-05-05 11:58 32.50180 -10.60588 34110 ft 386 kts 222°
2026-05-05 11:59 32.45914 -10.64455 34101 ft 387 kts 222°
2026-05-05 11:59 32.41646 -10.68323 34082 ft 385 kts 223°
2026-05-05 12:00 32.37394 -10.72163 34117 ft 383 kts 223°
2026-05-05 12:00 32.33163 -10.75979 34125 ft 382 kts 223°
2026-05-05 12:01 32.28948 -10.79777 34125 ft 381 kts 223°
2026-05-05 12:01 32.24776 -10.83545 34120 ft 380 kts 223°
2026-05-05 12:02 32.20581 -10.87332 34117 ft 379 kts 223°
2026-05-05 12:02 32.16385 -10.91108 34114 ft 379 kts 223°
2026-05-05 12:03 32.12183 -10.94876 34103 ft 379 kts 223°
2026-05-05 12:03 32.07989 -10.98638 34104 ft 379 kts 223°
2026-05-05 12:04 32.03790 -11.02397 34104 ft 379 kts 223°
2026-05-05 12:04 31.99592 -11.06157 34099 ft 379 kts 223°
2026-05-05 12:05 31.95398 -11.09907 34097 ft 379 kts 223°
2026-05-05 12:05 31.91201 -11.13663 34098 ft 379 kts 223°
2026-05-05 12:06 31.87002 -11.17405 34094 ft 379 kts 223°
2026-05-05 12:06 31.82809 -11.21154 34077 ft 378 kts 223°
2026-05-05 12:07 31.78614 -11.24892 34088 ft 378 kts 223°
2026-05-05 12:07 31.74420 -11.28610 34094 ft 378 kts 223°
2026-05-05 12:08 31.70231 -11.32336 34110 ft 377 kts 223°
2026-05-05 12:08 31.66054 -11.36066 34105 ft 377 kts 223°
2026-05-05 12:09 31.61882 -11.39789 34103 ft 377 kts 223°
2026-05-05 12:09 31.57700 -11.43508 34103 ft 377 kts 223°
2026-05-05 12:10 31.53528 -11.47221 34081 ft 376 kts 223°
2026-05-05 12:10 31.49361 -11.50922 34093 ft 375 kts 223°
2026-05-05 12:11 31.45194 -11.54603 34098 ft 375 kts 223°
2026-05-05 12:11 31.41036 -11.58280 34103 ft 374 kts 223°
2026-05-05 12:12 31.36880 -11.61949 34102 ft 374 kts 223°
2026-05-05 12:12 31.32727 -11.65613 34101 ft 374 kts 223°
2026-05-05 12:13 31.28579 -11.69273 34096 ft 374 kts 223°
2026-05-05 12:13 31.24425 -11.72932 34067 ft 373 kts 224°
2026-05-05 12:14 31.20285 -11.76583 34084 ft 373 kts 224°
2026-05-05 12:14 31.16148 -11.80221 34095 ft 372 kts 224°
2026-05-05 12:15 31.12009 -11.83852 34097 ft 372 kts 224°
2026-05-05 12:15 31.07878 -11.87482 34095 ft 372 kts 224°
2026-05-05 12:16 31.03749 -11.91103 34097 ft 372 kts 224°
2026-05-05 12:16 30.99613 -11.94720 34096 ft 371 kts 224°
2026-05-05 12:17 30.95480 -11.98332 34064 ft 371 kts 224°
2026-05-05 12:17 30.91377 -12.01923 34075 ft 371 kts 224°
2026-05-05 12:18 30.87218 -12.05554 34092 ft 371 kts 224°
2026-05-05 12:18 30.83087 -12.09154 34102 ft 371 kts 224°
2026-05-05 12:19 30.78955 -12.12739 34108 ft 370 kts 224°
2026-05-05 12:19 30.74854 -12.16297 34099 ft 370 kts 224°
2026-05-05 12:20 30.70730 -12.19877 34088 ft 370 kts 224°
2026-05-05 12:20 30.66611 -12.23458 34092 ft 370 kts 224°
2026-05-05 12:21 30.63158 -12.26454 34078 ft 370 kts 224°
2026-05-05 12:21 30.59032 -12.30030 34064 ft 370 kts 224°
2026-05-05 12:22 30.54901 -12.33599 34072 ft 370 kts 224°
2026-05-05 12:22 30.50770 -12.37168 34081 ft 370 kts 224°
2026-05-05 12:23 30.46633 -12.40733 34088 ft 370 kts 224°
2026-05-05 12:23 30.42521 -12.44260 34093 ft 370 kts 223°
2026-05-05 12:24 30.38383 -12.47803 34095 ft 369 kts 224°
2026-05-05 12:24 30.34232 -12.51370 34060 ft 369 kts 223°
2026-05-05 12:25 30.30126 -12.54888 34066 ft 370 kts 223°
2026-05-05 12:25 30.25990 -12.58429 34074 ft 370 kts 223°
2026-05-05 12:26 30.21847 -12.61970 34078 ft 370 kts 223°
2026-05-05 12:26 30.17698 -12.65502 34085 ft 370 kts 223°
2026-05-05 12:27 30.13549 -12.69032 34086 ft 370 kts 223°
2026-05-05 12:27 30.09412 -12.72577 34086 ft 370 kts 224°
2026-05-05 12:28 30.05419 -12.76287 34087 ft 368 kts 226°
2026-05-05 12:28 30.01493 -12.80068 34102 ft 367 kts 226°
2026-05-05 12:29 29.97557 -12.83829 34103 ft 367 kts 226°
2026-05-05 12:29 29.93601 -12.87550 34100 ft 367 kts 225°
2026-05-05 12:30 29.89637 -12.91261 34096 ft 367 kts 225°
2026-05-05 12:30 29.85672 -12.94968 34092 ft 367 kts 225°
2026-05-05 12:31 29.81708 -12.98671 34090 ft 367 kts 225°
2026-05-05 12:31 29.77745 -13.02378 34090 ft 367 kts 225°
2026-05-05 12:32 29.73787 -13.06082 34052 ft 367 kts 225°
2026-05-05 12:32 29.69821 -13.09785 34063 ft 368 kts 225°
2026-05-05 12:33 29.65845 -13.13494 34076 ft 368 kts 225°
2026-05-05 12:33 29.61863 -13.17202 34078 ft 368 kts 225°
2026-05-05 12:34 29.57881 -13.20904 34082 ft 368 kts 225°
2026-05-05 12:34 29.53899 -13.24600 34089 ft 368 kts 225°
2026-05-05 12:35 29.49917 -13.28299 34085 ft 368 kts 225°
2026-05-05 12:35 29.45937 -13.31994 34082 ft 368 kts 225°
2026-05-05 12:36 29.41955 -13.35690 34048 ft 368 kts 225°
2026-05-05 12:36 29.37964 -13.39382 34058 ft 369 kts 225°
2026-05-05 12:37 29.33962 -13.43089 34061 ft 370 kts 225°
2026-05-05 12:37 29.29959 -13.46794 34069 ft 370 kts 225°
2026-05-05 12:38 29.25946 -13.50494 34079 ft 370 kts 225°
2026-05-05 12:38 29.21932 -13.54187 34077 ft 370 kts 225°
2026-05-05 12:39 29.17922 -13.57871 34089 ft 370 kts 225°
2026-05-05 12:39 29.13913 -13.61555 34087 ft 370 kts 225°
2026-05-05 12:40 29.09906 -13.65240 34054 ft 370 kts 225°
2026-05-05 12:40 29.05891 -13.68924 34060 ft 370 kts 225°
2026-05-05 12:41 29.01873 -13.72610 34064 ft 371 kts 225°
2026-05-05 12:41 28.97852 -13.76302 34067 ft 371 kts 225°
2026-05-05 12:42 28.93821 -13.79984 34071 ft 371 kts 224°
2026-05-05 12:42 28.89788 -13.83669 34073 ft 371 kts 225°
2026-05-05 12:43 28.85760 -13.87354 34082 ft 371 kts 224°
2026-05-05 12:43 28.81733 -13.91027 34081 ft 371 kts 224°
2026-05-05 12:44 28.77699 -13.94698 34049 ft 371 kts 224°
2026-05-05 12:44 28.73662 -13.98367 34052 ft 371 kts 224°
2026-05-05 12:45 28.69622 -14.02044 34059 ft 372 kts 224°
2026-05-05 12:45 28.65582 -14.05718 34064 ft 372 kts 224°
2026-05-05 12:46 28.61537 -14.09385 34063 ft 372 kts 224°
2026-05-05 12:46 28.57488 -14.13056 34063 ft 372 kts 224°
2026-05-05 12:47 28.53445 -14.16723 34065 ft 372 kts 224°
2026-05-05 12:47 28.49397 -14.20392 34025 ft 372 kts 224°
2026-05-05 12:48 28.45339 -14.24057 34046 ft 373 kts 224°
2026-05-05 12:48 28.41279 -14.27723 34051 ft 373 kts 224°
2026-05-05 12:49 28.37213 -14.31395 34055 ft 373 kts 224°
2026-05-05 12:49 28.33141 -14.35060 34055 ft 374 kts 224°
2026-05-05 12:50 28.29067 -14.38725 34058 ft 374 kts 224°
2026-05-05 12:50 28.24995 -14.42394 34063 ft 374 kts 224°
2026-05-05 12:51 28.20916 -14.46051 34062 ft 374 kts 224°
2026-05-05 12:51 28.16832 -14.49706 34027 ft 374 kts 224°
2026-05-05 12:52 28.12744 -14.53378 33788 ft 377 kts 224°
2026-05-05 12:52 28.10687 -14.55226 33446 ft 378 kts 224°
2026-05-05 12:52 28.08622 -14.57077 33049 ft 379 kts 224°
2026-05-05 12:53 28.06548 -14.58936 32671 ft 380 kts 224°
2026-05-05 12:53 28.04487 -14.60818 32286 ft 380 kts 226°
2026-05-05 12:53 28.02626 -14.62927 31909 ft 378 kts 232°
2026-05-05 12:53 28.01055 -14.65259 31538 ft 377 kts 239°
2026-05-05 12:54 27.98793 -14.70613 30811 ft 380 kts 251°
2026-05-05 12:54 27.98116 -14.73520 30453 ft 383 kts 255°
2026-05-05 12:54 27.97486 -14.76460 29938 ft 386 kts 254°
2026-05-05 12:55 27.96844 -14.79414 29356 ft 388 kts 254°
2026-05-05 12:55 27.96193 -14.82384 28791 ft 390 kts 254°
2026-05-05 12:55 27.95541 -14.85371 28235 ft 392 kts 254°
2026-05-05 12:55 27.94886 -14.88378 27685 ft 395 kts 254°
2026-05-05 12:56 27.94229 -14.91398 27149 ft 397 kts 254°
2026-05-05 12:56 27.93568 -14.94437 26682 ft 399 kts 254°
2026-05-05 12:56 27.92903 -14.97489 26351 ft 401 kts 254°
2026-05-05 12:56 27.92236 -15.00554 26107 ft 402 kts 254°
2026-05-05 12:57 27.91565 -15.03633 25868 ft 404 kts 253°
2026-05-05 12:57 27.90893 -15.06712 25630 ft 405 kts 253°
2026-05-05 12:57 27.90213 -15.09810 25391 ft 406 kts 253°
2026-05-05 12:57 27.89534 -15.12908 25148 ft 407 kts 253°
2026-05-05 12:58 27.88852 -15.16014 24927 ft 408 kts 253°
2026-05-05 12:58 27.88165 -15.19132 24700 ft 409 kts 253°
2026-05-05 12:58 27.87476 -15.22250 24468 ft 410 kts 253°
2026-05-05 12:58 27.86787 -15.25385 24238 ft 411 kts 253°
2026-05-05 12:59 27.86102 -15.28516 24014 ft 411 kts 253°
2026-05-05 12:59 27.85416 -15.31650 23788 ft 410 kts 253°
2026-05-05 12:59 27.84728 -15.34770 23547 ft 409 kts 253°
2026-05-05 13:00 27.83413 -15.41014 23019 ft 408 kts 257°
2026-05-05 13:00 27.83129 -15.44207 22748 ft 410 kts 264°
2026-05-05 13:01 27.83792 -15.53877 21965 ft 409 kts 271°
2026-05-05 13:01 27.84072 -15.57071 21711 ft 409 kts 270°
2026-05-05 13:01 27.84351 -15.60267 21456 ft 408 kts 271°
2026-05-05 13:01 27.84628 -15.63444 21202 ft 407 kts 271°
2026-05-05 13:02 27.84903 -15.66623 20957 ft 406 kts 271°
2026-05-05 13:02 27.85175 -15.69796 20706 ft 405 kts 270°
2026-05-05 13:02 27.85447 -15.72957 20460 ft 404 kts 271°
2026-05-05 13:02 27.85717 -15.76109 20214 ft 403 kts 271°
2026-05-05 13:03 27.85986 -15.79250 19971 ft 401 kts 271°
2026-05-05 13:03 27.86164 -15.81329 19815 ft 400 kts 271°
2026-05-05 13:03 27.86431 -15.84451 19577 ft 399 kts 271°
2026-05-05 13:03 27.86694 -15.87566 19344 ft 398 kts 271°
2026-05-05 13:04 27.86954 -15.90673 19109 ft 397 kts 271°
2026-05-05 13:04 27.87211 -15.93771 18878 ft 396 kts 271°
2026-05-05 13:04 27.87471 -15.96867 18648 ft 395 kts 271°
2026-05-05 13:04 27.87730 -15.99941 18433 ft 390 kts 271°
2026-05-05 13:05 27.87988 -16.02930 18180 ft 374 kts 271°
2026-05-05 13:05 27.88234 -16.05797 18042 ft 358 kts 271°
2026-05-05 13:05 27.88466 -16.08520 18063 ft 339 kts 270°
2026-05-05 13:05 27.88684 -16.11103 18064 ft 322 kts 270°
2026-05-05 13:06 27.88891 -16.13562 17932 ft 308 kts 270°
2026-05-05 13:06 27.89086 -16.15921 17669 ft 295 kts 270°
2026-05-05 13:06 27.89272 -16.18186 17410 ft 284 kts 270°
2026-05-05 13:06 27.89449 -16.20380 17154 ft 278 kts 270°
2026-05-05 13:07 27.89621 -16.22550 16893 ft 276 kts 270°
2026-05-05 13:07 27.89790 -16.24704 16647 ft 275 kts 269°
2026-05-05 13:07 27.89707 -16.26836 16399 ft 269 kts 257°
2026-05-05 13:07 27.89173 -16.28842 16166 ft 266 kts 246°
2026-05-05 13:08 27.88436 -16.30764 16062 ft 266 kts 246°
2026-05-05 13:08 27.87711 -16.32693 15908 ft 267 kts 246°
2026-05-05 13:08 27.86992 -16.34623 15664 ft 266 kts 246°
2026-05-05 13:08 27.86275 -16.36552 15428 ft 266 kts 246°
2026-05-05 13:09 27.85555 -16.38483 15081 ft 267 kts 246°
2026-05-05 13:09 27.84834 -16.40409 14724 ft 266 kts 246°
2026-05-05 13:09 27.84112 -16.42333 14370 ft 265 kts 246°
2026-05-05 13:09 27.83394 -16.44251 14022 ft 265 kts 247°
2026-05-05 13:10 27.82678 -16.46164 13651 ft 264 kts 247°
2026-05-05 13:10 27.81963 -16.48076 13263 ft 264 kts 247°
2026-05-05 13:10 27.81247 -16.49986 12877 ft 264 kts 246°
2026-05-05 13:10 27.80532 -16.51888 12496 ft 264 kts 246°
2026-05-05 13:11 27.79815 -16.53794 12123 ft 264 kts 246°
2026-05-05 13:11 27.79096 -16.55705 11749 ft 265 kts 246°
2026-05-05 13:11 27.78376 -16.57621 11384 ft 265 kts 246°
2026-05-05 13:11 27.77655 -16.59539 11025 ft 266 kts 246°
2026-05-05 13:12 27.76928 -16.61465 10660 ft 267 kts 246°
2026-05-05 13:12 27.76209 -16.63371 10313 ft 268 kts 246°
2026-05-05 13:12 27.75472 -16.65329 9954 ft 267 kts 246°
2026-05-05 13:12 27.74763 -16.67230 9602 ft 265 kts 249°
2026-05-05 13:13 27.74479 -16.69232 9464 ft 257 kts 272°
2026-05-05 13:13 27.74985 -16.71126 9342 ft 252 kts 297°
2026-05-05 13:13 27.76126 -16.72618 9212 ft 253 kts 312°
2026-05-05 13:13 27.77406 -16.73971 8949 ft 252 kts 313°
2026-05-05 13:14 27.78685 -16.75314 8731 ft 252 kts 313°
2026-05-05 13:14 27.79963 -16.76651 8485 ft 250 kts 314°
2026-05-05 13:14 27.81239 -16.77984 8199 ft 249 kts 314°
2026-05-05 13:14 27.82507 -16.79310 7877 ft 248 kts 314°
2026-05-05 13:15 27.83768 -16.80635 7556 ft 247 kts 313°
2026-05-05 13:15 27.84768 -16.82160 7243 ft 240 kts 291°
2026-05-05 13:15 27.85130 -16.83960 6986 ft 232 kts 268°
2026-05-05 13:15 27.84836 -16.85746 6902 ft 234 kts 247°
2026-05-05 13:16 27.84195 -16.87448 6797 ft 237 kts 246°
2026-05-05 13:16 27.83550 -16.89159 6684 ft 236 kts 247°
2026-05-05 13:16 27.82902 -16.90874 6581 ft 238 kts 247°
2026-05-05 13:16 27.82252 -16.92596 6454 ft 239 kts 247°
2026-05-05 13:17 27.81600 -16.94319 6295 ft 238 kts 247°
2026-05-05 13:17 27.80951 -16.96038 6177 ft 238 kts 247°
2026-05-05 13:17 27.80306 -16.97755 6067 ft 237 kts 247°
2026-05-05 13:17 27.79658 -16.99473 5962 ft 238 kts 247°
2026-05-05 13:18 27.79009 -17.01192 5850 ft 238 kts 247°
2026-05-05 13:18 27.78358 -17.02919 5730 ft 239 kts 247°
2026-05-05 13:18 27.77706 -17.04651 5611 ft 239 kts 247°
2026-05-05 13:18 27.77104 -17.06395 5498 ft 238 kts 258°
2026-05-05 13:19 27.77189 -17.08229 5382 ft 237 kts 291°
2026-05-05 13:19 27.78151 -17.09713 5257 ft 238 kts 324°
2026-05-05 13:19 27.79640 -17.10530 5143 ft 239 kts 338°
2026-05-05 13:19 27.81182 -17.11245 5009 ft 240 kts 340°
2026-05-05 13:20 27.82808 -17.11466 4884 ft 238 kts 11°
2026-05-05 13:20 27.84275 -17.10661 4760 ft 237 kts 44°
2026-05-05 13:20 27.85157 -17.09103 4645 ft 238 kts 67°
2026-05-05 13:20 27.85805 -17.07378 4532 ft 239 kts 67°
2026-05-05 13:21 27.86445 -17.05651 4413 ft 238 kts 67°
2026-05-05 13:21 27.87085 -17.03927 4297 ft 237 kts 66°
2026-05-05 13:21 27.87725 -17.02212 4192 ft 237 kts 66°
2026-05-05 13:21 27.88366 -17.00502 4081 ft 236 kts 66°
2026-05-05 13:22 27.89008 -16.98798 3974 ft 236 kts 66°
2026-05-05 13:22 27.89652 -16.97088 3868 ft 237 kts 66°
2026-05-05 13:22 27.90295 -16.95375 3764 ft 236 kts 66°
2026-05-05 13:22 27.90938 -16.93663 3655 ft 236 kts 66°
2026-05-05 13:23 27.91595 -16.91963 3555 ft 236 kts 66°
2026-05-05 13:23 27.92263 -16.90274 3455 ft 235 kts 65°
2026-05-05 13:23 27.92934 -16.88590 3358 ft 235 kts 65°
2026-05-05 13:23 27.93604 -16.86907 3232 ft 234 kts 65°
2026-05-05 13:24 27.94270 -16.85231 3117 ft 233 kts 65°
2026-05-05 13:24 27.94933 -16.83559 3017 ft 233 kts 65°
2026-05-05 13:24 27.95588 -16.81903 2995 ft 225 kts 65°
2026-05-05 13:24 27.96204 -16.80348 2996 ft 208 kts 64°
2026-05-05 13:25 27.96846 -16.78854 3014 ft 229 kts 65°
2026-05-05 13:25 27.97528 -16.77069 3012 ft 258 kts 67°
2026-05-05 13:25 27.98200 -16.75162 3005 ft 261 kts 68°
2026-05-05 13:25 27.98849 -16.73294 2838 ft 250 kts 68°
2026-05-05 13:26 27.99465 -16.71528 2550 ft 231 kts 68°
2026-05-05 13:26 28.00027 -16.69920 2264 ft 209 kts 68°
2026-05-05 13:26 28.00529 -16.68481 2036 ft 186 kts 66°
2026-05-05 13:26 28.00984 -16.67177 1782 ft 172 kts 65°
2026-05-05 13:27 28.01395 -16.65999 1571 ft 150 kts 66°
2026-05-05 13:27 28.01761 -16.64952 1372 ft 139 kts 67°
2026-05-05 13:27 28.02116 -16.63938 1181 ft 137 kts 66°
2026-05-05 13:27 28.02460 -16.62953 1017 ft 133 kts 67°
2026-05-05 13:28 28.02792 -16.62003 833 ft 131 kts 71°
2026-05-05 13:28 28.03126 -16.61044 682 ft 131 kts 71°
2026-05-05 13:28 28.03463 -16.60078 449 ft 133 kts 71°
2026-05-05 13:28 28.03718 -16.59337 324 ft 133 kts 73°
2026-05-05 13:29 28.04019 -16.58495 229 ft 131 kts 73°
2026-05-05 13:29 28.04316 -16.57627 201 ft 102 kts 68°
2026-05-05 13:29 28.04512 -16.57065 206 ft 53 kts 68°
2026-05-05 13:29 28.04604 -16.56799 202 ft 28 kts 69°
2026-05-05 13:30 28.04670 -16.56629 208 ft 22 kts 60°
2026-05-05 13:30 28.04756 -16.56507 212 ft 18 kts 44°
2026-05-05 13:30 28.04837 -16.56419 217 ft 15 kts 44°
2026-05-05 13:30 28.04896 -16.56362 225 ft 8 kts 21°
2026-05-05 13:31 28.04934 -16.56389 219 ft 8 kts 289°
2026-05-05 13:31 28.04922 -16.56442 224 ft 7 kts 248°
2026-05-05 13:31 28.04907 -16.56487 224 ft 6 kts 248°
2026-05-05 13:31 28.04889 -16.56538 222 ft 10 kts 249°
2026-05-05 13:32 28.04864 -16.56610 223 ft 9 kts 249°
2026-05-05 13:32 28.04840 -16.56678 219 ft 9 kts 248°
2026-05-05 13:32 28.04816 -16.56743 223 ft 8 kts 248°
2026-05-05 13:32 28.04796 -16.56802 223 ft 8 kts 249°
2026-05-05 13:33 28.04771 -16.56875 221 ft 9 kts 248°
2026-05-05 13:33 28.04750 -16.56937 220 ft 8 kts 248°
2026-05-05 13:33 28.04728 -16.56998 221 ft 7 kts 249°
2026-05-05 13:33 28.04713 -16.57043 222 ft 5 kts 249°
2026-05-05 13:34 28.04696 -16.57092 222 ft 8 kts 249°
2026-05-05 13:34 28.04668 -16.57152 223 ft 8 kts 239°
2026-05-05 13:34 28.04646 -16.57207 225 ft 7 kts 249°
2026-05-05 13:34 28.04624 -16.57270 223 ft 8 kts 248°
2026-05-05 13:35 28.04605 -16.57326 223 ft 7 kts 248°
2026-05-05 13:35 28.04588 -16.57375 223 ft 6 kts 248°
2026-05-05 13:35 28.04573 -16.57417 224 ft 7 kts 248°
2026-05-05 13:35 28.04552 -16.57476 223 ft 8 kts 248°
2026-05-05 13:36 28.04534 -16.57530 223 ft 7 kts 248°
2026-05-05 13:36 28.04514 -16.57587 223 ft 9 kts 248°
2026-05-05 13:36 28.04491 -16.57651 224 ft 8 kts 248°
2026-05-05 13:36 28.04471 -16.57709 223 ft 7 kts 248°
2026-05-05 13:37 28.04454 -16.57759 223 ft 6 kts 248°
2026-05-05 13:37 28.04439 -16.57801 223 ft 5 kts 248°
2026-05-05 13:37 28.04427 -16.57836 223 ft 4 kts 248°
2026-05-05 13:37 28.04416 -16.57867 224 ft 3 kts 248°
2026-05-05 13:38 28.04418 -16.57887 223 ft 3 kts 300°
2026-05-05 13:38 28.04445 -16.57903 223 ft 6 kts 338°
2026-05-05 13:38 28.04479 -16.57918 223 ft 4 kts 338°
2026-05-05 13:38 28.04508 -16.57928 224 ft 3 kts 351°
2026-05-05 13:39 28.04535 -16.57918 225 ft 3 kts 35°
2026-05-05 13:39 28.04556 -16.57907 225 ft 3 kts 16°
2026-05-05 13:39 28.04579 -16.57903 225 ft 6 kts
2026-05-05 13:39 28.04609 -16.57900 226 ft 3 kts
2026-05-05 13:40 28.04624 -16.57898 226 ft 2 kts
2026-05-05 13:40 28.04639 -16.57896 226 ft 2 kts
2026-05-05 13:40 28.04642 -16.57896 226 ft 0 kts